Location: Home
(42.5358°N, 72.7383°W)
Time: 12:45:43
(UTC-05:00)

Transit 2A Rocket - Pass Details

Date: 06 December 2021
Orbit: 584 x 918 km, 66.7° (Epoch: 22 January)

Event Time Altitude Azimuth Distance (km) Brightness Sun altitude
Rises 04:56:18 0° 146° (SE) 3,296 8.9 -23.2°
Reaches altitude 10° 05:01:47 10° 101° (ESE) 2,477 8.8 -22.2°
Maximum altitude 05:02:04 10° 99° (E) 2,480 8.8 -22.2°
Drops below altitude 10° 05:02:20 10° 96° (E) 2,487 8.8 -22.1°
Sets 05:08:05 0° 53° (NE) 3,513 9.0 -21.1°
